This is the latest recevied weather packets stored in our database for station/object SP6RGZ-1. If no packets are shown the sender has not sent any weather packets the latest 10 day(s).
| Time | Temp. | Humidity | Pressure | Rain* | Wind** | Luminosity | Snow |
|---|---|---|---|---|---|---|---|
| 1787946302 | 24.44° C | 64% | 992.6 hPa | - | - | - | - |
| 1787945402 | 24.44° C | 64% | 992.7 hPa | - | - | - | - |
| 1787944502 | 25° C | 63% | 993 hPa | - | - | - | - |
| 1787943603 | 25° C | 62% | 992.9 hPa | - | - | - | - |
| 1787942701 | 25.56° C | 61% | 992.8 hPa | - | - | - | - |
| 1787941801 | 25.56° C | 60% | 992.6 hPa | - | - | - | - |
| 1787940902 | 26.11° C | 59% | 992.6 hPa | - | - | - | - |
| 1787940002 | 26.67° C | 58% | 992.5 hPa | - | - | - | - |
| 1787939102 | 26.67° C | 57% | 992.7 hPa | - | - | - | - |
| 1787938202 | 27.22° C | 56% | 992.7 hPa | - | - | - | - |
| 1787937302 | 28.33° C | 53% | 992.6 hPa | - | - | - | - |
| 1787936402 | 28.89° C | 51% | 992.8 hPa | - | - | - | - |
| 1787935502 | 29.44° C | 49% | 992.9 hPa | - | - | - | - |
| 1787934602 | 30° C | 49% | 993.1 hPa | - | - | - | - |
| 1787933702 | 31.11° C | 46% | 993.4 hPa | - | - | - | - |
| 1787932802 | 31.11° C | 46% | 993.4 hPa | - | - | - | - |
| 1787931902 | 31.11° C | 45% | 993.4 hPa | - | - | - | - |
| 1787931002 | 31.11° C | 45% | 993.4 hPa | - | - | - | - |
| 1787930102 | 30.56° C | 46% | 993.2 hPa | - | - | - | - |
| 1787929202 | 30.56° C | 45% | 993.2 hPa | - | - | - | - |
| 1787928302 | 31.11° C | 44% | 993.1 hPa | - | - | - | - |
| 1787927402 | 31.67° C | 42% | 993.4 hPa | - | - | - | - |
| 1787926502 | 31.67° C | 43% | 993.6 hPa | - | - | - | - |
| 1787925602 | 31.11° C | 42% | 993.5 hPa | - | - | - | - |
| 1787924702 | 31.67° C | 42% | 993.8 hPa | - | - | - | - |
* Rain since midnight (hover to see other rain measurements)
** Current wind speed in m/s (hover to see current wind gust speed)